CW6876 Weather Reports


time (UTC)temp
F
wind
direction
speed
knots
gust
knots
rain 1hr
in
rain 24hr
in
rain mn
in
humidity
%
barometer
mb
20260506161527 59 188 1.7 10.4 0.08 0.15 0.15 94 1008.7
20260506160117 58 114 1.7 6.1 0.09 0.13 0.13 93 1008.7
20260506154535 58 132 1.7 6.1 0.09 0.11 0.11 93 1009.7
20260506153005 58 120 0.9 5.2 0.07 0.08 0.08 92 1009.9
20260506151547 59 146 0.9 7.0 0.07 0.07 0.07 92 1010.0
20260506150008 59 141 1.7 7.0 0.04 0.04 0.04 91 1009.8
20260506144602 59 185 1.7 5.2 0.02 0.02 0.02 91 1009.9
20260506143027 60 114 0.9 7.0 0.01 0.01 0.01 89 1009.9
20260506141559 60 204 1.7 6.1 0.00 0.00 0.00 87 1009.9
20260506140028 61 155 0.0 8.7 0.00 0.00 0.00 85 1009.9
20260506134611 61 184 0.9 5.2 0.00 0.00 0.00 85 1010.0
20260506133042 61 185 0.0 4.3 0.00 0.00 0.00 84 1009.7
20260506131506 62 125 0.9 3.5 0.00 0.00 0.00 84 1010.0
20260506130034 62 110 1.7 10.4 0.00 0.00 0.00 81 1009.9
20260506124606 63 172 1.7 7.0 0.00 0.00 0.00 80 1010.2
20260506123035 63 290 2.6 8.7 0.00 0.00 0.00 78 1010.1
20260506121504 63 188 1.7 6.1 0.00 0.00 0.00 78 1010.0
20260506120045 63 115 1.7 8.7 0.00 0.00 0.00 78 1009.8
20260506114513 63 131 1.7 7.8 0.00 0.00 0.00 78 1009.6
20260506113052 63 0.0 0.0 0.00 0.00 0.00 78 1009.3
20260506111528 63 0.0 0.0 0.00 0.00 0.00 78 1009.5
20260506110009 63 0.0 0.0 0.00 0.00 0.00 77 1009.5
20260506104549 63 0.0 0.0 0.00 0.00 0.00 77 1009.3
20260506103023 63 0.0 0.0 0.00 0.00 0.00 76 1009.3
20260506101603 63 0.0 0.0 0.00 0.00 0.00 76 1009.2
20260506100038 64 0.0 0.0 0.00 0.00 0.00 75 1009.2
20260506094506 64 0.0 0.0 0.00 0.00 0.00 75 1009.3
20260506093049 64 0.0 0.0 0.00 0.00 0.00 75 1009.2
20260506091517 64 0.0 0.0 0.00 0.00 0.00 75 1009.1
20260506090100 64 0.0 0.0 0.00 0.00 0.00 74 1009.4
20260506084527 65 172 1.7 5.2 0.00 0.00 0.00 74 1009.3
20260506083107 65 141 1.7 5.2 0.00 0.00 0.00 73 1009.3
20260506081538 65 103 2.6 7.8 0.00 0.00 0.00 73 1009.4
20260506073007 65 136 1.7 5.2 0.00 0.00 0.00 70 1009.6
20260506071551 65 169 1.7 6.1 0.00 0.00 0.00 69 1009.7
20260506061504 66 188 1.7 5.2 0.00 0.00 0.00 65 1010.3
20260506050124 67 155 0.0 4.3 0.00 0.00 0.00 61 1010.9
20260506044546 67 152 0.9 5.2 0.00 0.00 0.00 61 1010.8
20260506043007 66 160 0.0 3.5 0.00 0.00 0.00 61 1011.0
20260506041545 66 94 0.0 4.3 0.00 0.00 0.00 61 1010.9
20260506040012 66 200 0.0 6.1 0.00 0.00 0.00 61 1010.8
20260506034556 66 119 0.0 3.5 0.00 0.00 0.00 61 1010.8
20260506033025 66 152 0.0 3.5 0.00 0.00 0.00 60 1010.8
20260506031606 67 121 0.9 7.0 0.00 0.00 0.00 59 1010.7
20260506030030 67 194 0.9 6.1 0.00 0.00 0.00 58 1010.7
20260506024607 68 252 0.0 5.2 0.00 0.00 0.00 57 1010.8
20260506023037 68 206 0.9 5.2 0.00 0.00 0.00 56 1010.8
20260506021511 69 81 0.0 4.3 0.00 0.00 0.00 55 1010.8
20260506020054 69 168 0.9 5.2 0.00 0.00 0.00 54 1010.7
20260506014521 70 172 0.9 7.0 0.00 0.00 0.00 52 1010.5
20260506011535 70 166 0.9 5.2 0.00 0.00 0.00 51 1010.3
20260506010001 71 207 1.7 6.1 0.00 0.00 0.00 49 1010.0
20260506004539 71 152 0.0 4.3 0.00 0.00 0.00 48 1010.0
20260506003010 71 195 0.0 3.5 0.00 0.00 0.00 47 1009.8
20260506001603 73 113 0.0 4.3 0.00 0.00 0.00 45 1009.7
20260506000037 73 177 0.9 6.1 0.00 0.00 0.00 45 1009.6
20260505234502 74 200 0.9 4.3 0.00 0.00 0.00 44 1009.4
20260505233030 74 117 1.7 7.8 0.00 0.00 0.00 43 1009.3
20260505231609 74 203 1.7 6.1 0.00 0.00 0.00 42 1009.3
20260505230037 75 144 1.7 7.0 0.00 0.00 0.00 43 1009.3
20260505224505 75 199 0.9 9.6 0.00 0.00 0.00 42 1009.3
20260505223050 75 150 3.5 9.6 0.00 0.00 0.00 42 1009.3
20260505221516 76 150 1.7 9.6 0.00 0.00 0.00 40 1009.4
20260505220057 76 195 4.3 13.0 0.00 0.00 0.00 39 1009.1
20260505214531 77 158 4.3 11.3 0.00 0.00 0.00 38 1009.1
20260505213105 77 321 2.6 10.4 0.00 0.00 0.00 39 1009.1
20260505211537 77 13 4.3 11.3 0.00 0.00 0.00 39 1009.0
20260505210004 76 205 2.6 9.6 0.00 0.00 0.00 39 1009.2
20260505204545 77 94 3.5 13.9 0.00 0.00 0.00 40 1009.2
20260505203015 77 193 2.6 7.8 0.00 0.00 0.00 40 1009.1
20260505201557 77 200 3.5 9.6 0.00 0.00 0.00 40 1009.2
20260505200030 77 203 2.6 15.6 0.00 0.00 0.00 41 1009.2
20260505194605 77 186 4.3 10.4 0.00 0.00 0.00 41 1009.3
20260505193029 77 150 2.6 11.3 0.00 0.00 0.00 40 1009.6
20260505191613 77 295 2.6 17.4 0.00 0.00 0.00 40 1009.7
20260505190048 78 329 2.6 7.0 0.00 0.00 0.00 38 1009.9
20260505184513 78 207 3.5 7.8 0.00 0.00 0.00 39 1010.1
20260505183102 78 212 0.9 9.6 0.00 0.00 0.00 40 1010.3
20260505181513 78 139 2.6 7.0 0.00 0.00 0.00 39 1010.3
20260505180056 77 316 2.6 7.8 0.00 0.00 0.00 41 1010.5
20260505174517 77 201 1.7 7.0 0.00 0.00 0.00 46 1010.5
20260505173059 77 129 1.7 8.7 0.00 0.00 0.00 45 1010.7
20260505171527 78 158 0.9 7.8 0.00 0.00 0.00 49 1010.9
20260505170107 77 172 0.0 4.3 0.00 0.00 0.00 48 1010.8
20260505164537 78 155 0.9 8.7 0.00 0.00 0.00 44 1011.1
20260505163009 77 134 0.0 5.2 0.00 0.00 0.00 45 1011.1